View from above orbital plane
|
View from above satellite
|
Ground track
|
The orbit data is extracted from the following two-line orbital elements,
1 22285U 92093B 21026.25732355 -.00000258 00000-0 -10837-3 0 9994
2 22285 71.0234 325.0922 0006866 274.2759 85.7579 14.15054881449132
Epoch (UTC): | 26 January 2021 06:10:32 |
Eccentricity: | 0.0006866 |
inclination: | 71.0234° |
perigee height: | 837 km |
apogee height: | 847 km |
right ascension of ascending node: | 325.0922° |
argument of perigee: | 274.2759° |
revolutions per day: | 14.15054881 |
mean anomaly at epoch: | 85.7579° |
orbit number at epoch: | 44913 |
The dashed part of the orbit path shows where the satellite is in the earth's shadow,
|
|